Location: Caserío Gudillos
(40.7144°N, 4.1626°W)
Time: 00:42:20
(UTC+00:00)

Daily predictions for brighter satellites

Satellite Brightness Start Highest point End
(mag) Time Altitude Azimuth Time Altitude Azimuth Time Altitude Azimuth
USA 267 4.5 03:16:46 10° NE 03:20:18 35° NE 03:20:18 35° NE
ACS3 Solar Sail 3.5 03:45:54 10° NNE 03:47:53 22° NNE 03:47:53 22° NNE
Cosmos 2360 Rocket 4.3 03:59:09 16° N 03:59:09 16° N 04:00:19 10° NNE
Cosmos 2322 Rocket 4.4 03:59:31 15° N 03:59:31 15° N 04:00:27 10° NNE
USA 234 3.8 03:51:46 10° ESE 03:58:04 52° NNE 03:58:52 49° N
Cosmos 1943 Rocket 4.5 04:06:56 10° N 04:10:50 19° NE 04:14:41 10° E
ARGOS 3.7 04:12:18 10° NNE 04:16:17 50° NNE 04:16:17 50° NNE
CZ-2C R/B 3.2 04:18:00 10° NNE 04:21:32 46° NNE 04:21:32 46° NNE
NOSS 3-1 (C) 3.2 04:27:25 59° NE 04:27:25 59° NE 04:31:49 10° NE
ADEOS Rocket 4.1 04:21:56 10° N 04:25:40 33° NNW 04:25:40 33° NNW
Cosmos 2100 Rocket 4.5 04:28:05 10° N 04:34:09 59° E 04:40:13 10° SSE
Cosmos 2219 Rocket 3.4 04:36:50 28° N 04:36:50 28° N 04:39:52 10° N
COSMOS 2428 2.7 04:41:30 31° SSW 04:44:19 84° ESE 04:50:02 10° NNE
USA 59 Rocket 1.9 04:50:48 13° NNE 04:50:48 13° NNE 04:51:10 10° NNE
Cosmos 2322 3.5 04:50:01 45° SW 04:51:46 74° WNW 04:57:28 10° NNE
SL-08 RB Rocket 4.1 04:50:04 10° N 04:53:29 47° NNW 04:53:29 47° NNW
Cosmos 1459 Rocket 4.1 04:49:03 10° N 04:55:27 79° E 05:01:46 10° S
Meteor 2-21 4.3 04:50:40 10° S 04:56:47 84° W 05:02:53 10° N
Cosmos 1727 Rocket 3.9 04:53:16 10° SSW 04:59:18 58° W 05:05:27 10° N
FengYun 1-2 T 4.4 04:54:08 10° NNE 04:59:42 75° ESE 05:05:18 10° S
Cosmos 1023 Rocket 4.5 04:58:46 17° NNW 05:02:46 79° ENE 05:07:48 10° SSE
Cosmos 1980 4.4 04:58:42 10° S 05:04:09 53° ESE 05:09:39 10° NNE
Cosmos 1725 Rocket 4.4 04:59:34 10° N 05:05:51 64° E 05:12:06 10° SSE
USA 267 4.0 05:00:09 10° NE 05:05:51 33° NNW 05:07:39 29° NW
NOSS 3-1 (A) 2.9 05:07:03 16° SSW 05:10:38 75° ESE 05:15:57 10° NE
Cosmos 1802 Rocket 4.1 05:07:23 10° N 05:13:47 82° E 05:20:03 10° S
Cosmos 1328 3.4 05:10:14 10° SSW 05:13:50 72° W 05:17:28 10° N
Cosmos 1269 Rocket 3.9 05:09:27 15° NNW 05:13:50 77° WSW 05:19:06 10° SSE
Cosmos 1703 Rocket 3.4 05:10:51 10° S 05:15:10 87° W 05:19:34 10° N
Cosmos 921 Rocket 3.4 05:16:56 40° WSW 05:16:56 40° WSW 05:20:58 10° S
NOSS 2-1 (E) 4.0 05:18:52 30° NNW 05:18:52 30° NNW 05:20:57 10° NNE
Cosmos 2278 Rocket 2.7 05:12:54 10° NNW 05:18:31 60° ENE 05:24:05 10° SE
Meteor 2-16 Rocket 4.4 05:13:18 10° S 05:19:22 88° ESE 05:25:32 10° N
CZ-3 R/B 3.7 05:07:22 10° SW 05:19:44 29° S 05:25:03 10° ESE
Cosmos 2237 Rocket 2.5 05:14:47 10° SSW 05:20:24 68° ESE 05:26:01 10° NNE
Cosmos 1939 Rocket 3.1 05:20:10 10° N 05:23:42 40° WNW 05:23:42 40° WNW
Cosmos 2173 Rocket 3.9 05:18:46 10° NNW 05:24:43 57° W 05:30:38 10° S
Cosmos 2292 Rocket 3.7 05:21:42 10° S 05:25:37 80° E 05:30:43 10° N
BlueWalker 3 1.9 05:27:40 31° NW 05:29:14 67° NE 05:32:48 10° ESE
USA 276 1.8 05:29:39 56° NNW 05:30:01 65° NNE 05:32:46 10° ESE
Meteor 1-24 Rocket 3.7 05:24:22 10° SSW 05:30:08 63° WNW 05:35:44 10° N
Helios 1A Rocket 2.5 05:28:09 10° SSE 05:31:31 75° ENE 05:34:54 10° N
ACS3 Solar Sail 3.5 05:30:57 10° NNW 05:32:02 12° NW 05:32:02 12° NW
CZ-4 R/B 3.8 05:33:34 10° N 05:38:26 68° WNW 05:43:11 10° SSW
Cosmos 1782 Rocket 3.7 05:35:42 10° N 05:40:06 77° E 05:44:27 10° SSE
Cosmos 2123 Rocket 4.1 05:34:46 10° SSW 05:40:49 52° W 05:46:52 10° N
USA 234 3.5 05:34:45 10° SSE 05:41:03 49° SW 05:46:14 16° WNW
Meteor 2-5 Rocket 3.9 05:35:28 10° SSW 05:41:17 57° WNW 05:47:05 10° N
Cosmos 1420 Rocket 4.3 05:37:24 10° S 05:42:37 71° ESE 05:47:53 10° NNE
Gbstr 26 Del rocket 4.2 05:41:19 22° WNW 05:44:02 37° NNW 05:49:34 10° NE
NOAA 12 4.1 05:42:29 10° N 05:47:46 67° WNW 05:53:01 10° SSW
Cosmos 44 Rocket 3.6 05:43:41 14° NW 05:47:57 53° WSW 05:52:57 10° SSE
Cosmos 1943 Rocket 2.1 05:49:34 10° NNW 05:55:03 66° WSW 06:00:29 10° S
Cosmos 1908 Rocket 4.2 05:51:48 10° NNW 05:55:48 34° W 05:59:46 10° SSW
Cosmos 2016 Rocket 4.1 05:49:50 10° NNW 05:56:03 56° W 06:02:13 10° SSW
CZ-2C R/B 4.1 05:58:03 10° NNW 06:00:27 13° WNW 06:00:45 13° WNW
Cosmos 1300 Rocket 3.6 05:56:19 10° NNW 06:00:34 55° W 06:04:45 10° S
Cosmos 1140 Rocket 4.2 05:56:38 10° NW 06:01:07 31° W 06:05:34 10° SSW
Timation 2 Rocket 4.4 06:02:23 10° NW 06:08:34 44° WSW 06:14:29 10° S
SJ 16-02 2.5 06:07:54 10° N 06:12:01 43° ENE 06:16:05 10° SE
Iridium 4 Rocket 3.8 06:09:37 10° NNW 06:13:18 28° W 06:16:52 10° SW
Aureole 3 Rocket 4.0 06:08:55 10° N 06:13:26 69° E 06:19:46 10° SSE
Cosmos 2061 Rocket 4.0 06:10:21 10° NNW 06:16:25 59° W 06:22:28 10° S
Cosmos 1378 Rocket 4.3 06:13:13 10° S 06:17:24 57° E 06:21:36 10° NNE
CBERS-1 4.1 06:12:45 10° NNE 06:17:54 88° ESE 06:23:00 10° SSW
SL-16 R/B 3.1 06:13:08 10° S 06:18:39 57° ESE 06:24:13 10° NNE
In-Cosmos 22 Rocket 4.4 06:13:50 10° S 06:19:37 85° E 06:25:29 10° N
Cosmos 1190 Rocket 4.1 06:16:19 10° NNW 06:21:37 86° ENE 06:26:51 10° SSE
IRS-1D 4.4 06:17:57 10° NNW 06:21:56 25° WNW 06:25:51 10° WSW
Cosmos 2056 Rocket 3.6 06:18:06 10° SSW 06:23:29 83° WNW 06:28:56 10° NNE
Cosmos 1869 2.9 06:20:36 10° N 06:24:05 78° W 06:27:34 10° S
COSMOS 2428 4.2 06:25:48 10° W 06:29:16 16° NW 06:32:47 10° N
